Tracking 29487 objects as of 10-Sep-2024
HD Live streaming from Space Station
objects crossing your sky now

W-CUBE

Track W-CUBE now!
10-day predictions


NORAD ID: 48965
Int'l Code: 2021-059CQ
Perigee: 460.0 km
Apogee: 470.5 km
Inclination: 97.7 °
Period: 93.8 minutes
Semi major axis: 6836 km
RCS: Unknown
Launch date: June 30, 2021
Source: (FIN)
Launch site: AIR FORCE EASTERN TEST RANGE (AFETR)
Your satellite tracking list
Your tracking list is empty




NASA's NSSDC Master Catalog

Two Line Element Set (TLE):
1 48965U 21059CQ  24253.86170375  .00046189  00000-0  13152-2 0  9994
2 48965  97.6550  41.6593 0007653 132.1094 228.0801 15.35937250177900
Source of the keplerian elements: AFSPC